iso_date,Year,Hour,Min,DOY,POS_DOY,Lat,Lon,BP,Ts,Ta,has_bp,has_ts,has_ta,BuoyID,Buoy_Type,Buoy_Owner,Logistics,Hemisphere
2021-11-23T16:00:02Z,2021,16,0,327.6667,327.6667,62.498,-50.332,-999.0,-0.24,-999.0,no,yes,no,300234068348010,SVPGHI,AOML,UNKNOWN,North
2021-11-23T16:59:57Z,2021,17,0,327.7083,327.7083,62.499,-50.332,-999.0,0.03,-999.0,no,yes,no,300234068348010,SVPGHI,AOML,UNKNOWN,North
2021-11-23T18:00:00Z,2021,18,0,327.75,327.75,62.499,-50.329,-999.0,0.08,-999.0,no,yes,no,300234068348010,SVPGHI,AOML,UNKNOWN,North
2021-11-23T19:00:02Z,2021,19,0,327.7917,327.7917,62.499,-50.332,-999.0,0.13,-999.0,no,yes,no,300234068348010,SVPGHI,AOML,UNKNOWN,North
2021-11-23T19:59:57Z,2021,20,0,327.8333,327.8333,62.498,-50.332,-999.0,0.15,-999.0,no,yes,no,300234068348010,SVPGHI,AOML,UNKNOWN,North
2021-11-23T21:00:00Z,2021,21,0,327.875,327.875,62.499,-50.332,-999.0,0.19,-999.0,no,yes,no,300234068348010,SVPGHI,AOML,UNKNOWN,North
2021-11-23T22:00:02Z,2021,22,0,327.9167,327.9167,62.498,-50.331,-999.0,0.29,-999.0,no,yes,no,300234068348010,SVPGHI,AOML,UNKNOWN,North
2021-11-23T22:59:57Z,2021,23,0,327.9583,327.9583,62.499,-50.332,-999.0,0.34,-999.0,no,yes,no,300234068348010,SVPGHI,AOML,UNKNOWN,North
2021-11-24T00:00:00Z,2021,0,0,328.0,328.0,62.499,-50.332,-999.0,0.39,-999.0,no,yes,no,300234068348010,SVPGHI,AOML,UNKNOWN,North
2021-11-24T01:00:02Z,2021,1,0,328.0417,328.0417,62.499,-50.332,-999.0,0.38,-999.0,no,yes,no,300234068348010,SVPGHI,AOML,UNKNOWN,North
2021-11-24T01:59:57Z,2021,2,0,328.0833,328.0833,62.499,-50.332,-999.0,0.37,-999.0,no,yes,no,300234068348010,SVPGHI,AOML,UNKNOWN,North
2021-11-24T03:00:00Z,2021,3,0,328.125,328.125,62.499,-50.332,-999.0,0.41,-999.0,no,yes,no,300234068348010,SVPGHI,AOML,UNKNOWN,North
2021-11-24T04:00:02Z,2021,4,0,328.1667,328.1667,62.498,-50.331,-999.0,0.44,-999.0,no,yes,no,300234068348010,SVPGHI,AOML,UNKNOWN,North
2021-11-24T04:59:57Z,2021,5,0,328.2083,328.2083,62.499,-50.332,-999.0,0.41,-999.0,no,yes,no,300234068348010,SVPGHI,AOML,UNKNOWN,North
2021-11-24T06:00:00Z,2021,6,0,328.25,328.25,62.498,-50.331,-999.0,0.37,-999.0,no,yes,no,300234068348010,SVPGHI,AOML,UNKNOWN,North
2021-11-24T07:00:02Z,2021,7,0,328.2917,328.2917,62.498,-50.332,-999.0,0.39,-999.0,no,yes,no,300234068348010,SVPGHI,AOML,UNKNOWN,North
2021-11-24T07:59:57Z,2021,8,0,328.3333,328.3333,62.498,-50.332,-999.0,0.45,-999.0,no,yes,no,300234068348010,SVPGHI,AOML,UNKNOWN,North
2021-11-24T09:00:00Z,2021,9,0,328.375,328.375,62.498,-50.332,-999.0,0.51,-999.0,no,yes,no,300234068348010,SVPGHI,AOML,UNKNOWN,North
2021-11-24T10:00:02Z,2021,10,0,328.4167,328.4167,62.498,-50.332,-999.0,0.55,-999.0,no,yes,no,300234068348010,SVPGHI,AOML,UNKNOWN,North
2021-11-24T12:00:00Z,2021,12,0,328.5,328.5,62.499,-50.33,-999.0,0.6,-999.0,no,yes,no,300234068348010,SVPGHI,AOML,UNKNOWN,North
2021-11-24T13:00:02Z,2021,13,0,328.5417,328.5417,62.499,-50.331,-999.0,0.61,-999.0,no,yes,no,300234068348010,SVPGHI,AOML,UNKNOWN,North
2021-11-24T13:59:57Z,2021,14,0,328.5833,328.5833,62.499,-50.331,-999.0,0.61,-999.0,no,yes,no,300234068348010,SVPGHI,AOML,UNKNOWN,North
2021-11-24T15:00:00Z,2021,15,0,328.625,328.625,62.498,-50.332,-999.0,0.53,-999.0,no,yes,no,300234068348010,SVPGHI,AOML,UNKNOWN,North
2021-11-24T16:00:02Z,2021,16,0,328.6667,328.6667,62.499,-50.33,-999.0,0.48,-999.0,no,yes,no,300234068348010,SVPGHI,AOML,UNKNOWN,North
2021-11-24T16:59:57Z,2021,17,0,328.7083,328.7083,62.498,-50.335,-999.0,0.44,-999.0,no,yes,no,300234068348010,SVPGHI,AOML,UNKNOWN,North
2021-11-24T18:00:00Z,2021,18,0,328.75,328.75,62.498,-50.332,-999.0,0.44,-999.0,no,yes,no,300234068348010,SVPGHI,AOML,UNKNOWN,North
2021-11-24T19:00:02Z,2021,19,0,328.7917,328.7917,62.498,-50.332,-999.0,0.47,-999.0,no,yes,no,300234068348010,SVPGHI,AOML,UNKNOWN,North
2021-11-24T19:59:57Z,2021,20,0,328.8333,328.8333,62.498,-50.332,-999.0,0.54,-999.0,no,yes,no,300234068348010,SVPGHI,AOML,UNKNOWN,North
2021-11-24T21:00:00Z,2021,21,0,328.875,328.875,62.499,-50.332,-999.0,0.53,-999.0,no,yes,no,300234068348010,SVPGHI,AOML,UNKNOWN,North
2021-11-24T22:00:02Z,2021,22,0,328.9167,328.9167,62.498,-50.332,-999.0,0.54,-999.0,no,yes,no,300234068348010,SVPGHI,AOML,UNKNOWN,North
2021-11-24T22:59:57Z,2021,23,0,328.9583,328.9583,62.498,-50.332,-999.0,0.57,-999.0,no,yes,no,300234068348010,SVPGHI,AOML,UNKNOWN,North
2021-11-25T00:00:00Z,2021,0,0,329.0,329.0,62.499,-50.332,-999.0,0.59,-999.0,no,yes,no,300234068348010,SVPGHI,AOML,UNKNOWN,North
2021-11-25T01:00:02Z,2021,1,0,329.0417,329.0417,62.498,-50.334,-999.0,0.64,-999.0,no,yes,no,300234068348010,SVPGHI,AOML,UNKNOWN,North
2021-11-25T01:59:57Z,2021,2,0,329.0833,329.0833,62.499,-50.332,-999.0,0.68,-999.0,no,yes,no,300234068348010,SVPGHI,AOML,UNKNOWN,North
2021-11-25T03:00:00Z,2021,3,0,329.125,329.125,62.499,-50.332,-999.0,0.73,-999.0,no,yes,no,300234068348010,SVPGHI,AOML,UNKNOWN,North
2021-11-25T04:00:02Z,2021,4,0,329.1667,329.1667,62.502,-50.329,-999.0,0.72,-999.0,no,yes,no,300234068348010,SVPGHI,AOML,UNKNOWN,North
2021-11-25T04:59:57Z,2021,5,0,329.2083,329.2083,62.498,-50.332,-999.0,0.76,-999.0,no,yes,no,300234068348010,SVPGHI,AOML,UNKNOWN,North
2021-11-25T06:00:00Z,2021,6,0,329.25,329.25,62.498,-50.332,-999.0,0.8,-999.0,no,yes,no,300234068348010,SVPGHI,AOML,UNKNOWN,North
2021-11-25T07:00:02Z,2021,7,0,329.2917,329.2917,62.498,-50.332,-999.0,0.81,-999.0,no,yes,no,300234068348010,SVPGHI,AOML,UNKNOWN,North
2021-11-25T07:59:57Z,2021,8,0,329.3333,329.3333,62.498,-50.332,-999.0,0.81,-999.0,no,yes,no,300234068348010,SVPGHI,AOML,UNKNOWN,North
2021-11-25T09:00:00Z,2021,9,0,329.375,329.375,62.499,-50.332,-999.0,0.81,-999.0,no,yes,no,300234068348010,SVPGHI,AOML,UNKNOWN,North
2021-11-25T10:00:02Z,2021,10,0,329.4167,329.4167,62.498,-50.331,-999.0,0.81,-999.0,no,yes,no,300234068348010,SVPGHI,AOML,UNKNOWN,North
2021-11-25T10:59:57Z,2021,11,0,329.4583,329.4583,62.498,-50.331,-999.0,0.81,-999.0,no,yes,no,300234068348010,SVPGHI,AOML,UNKNOWN,North
2021-11-25T12:00:00Z,2021,12,0,329.5,329.5,62.499,-50.331,-999.0,0.81,-999.0,no,yes,no,300234068348010,SVPGHI,AOML,UNKNOWN,North
2021-11-25T13:00:02Z,2021,13,0,329.5417,329.5417,62.499,-50.33,-999.0,0.76,-999.0,no,yes,no,300234068348010,SVPGHI,AOML,UNKNOWN,North
2021-11-25T13:59:57Z,2021,14,0,329.5833,329.5833,62.498,-50.331,-999.0,0.73,-999.0,no,yes,no,300234068348010,SVPGHI,AOML,UNKNOWN,North
2021-11-25T15:00:00Z,2021,15,0,329.625,329.625,62.499,-50.331,-999.0,0.72,-999.0,no,yes,no,300234068348010,SVPGHI,AOML,UNKNOWN,North
2021-11-25T18:00:00Z,2021,18,0,329.75,329.75,62.498,-50.336,-999.0,0.67,-999.0,no,yes,no,300234068348010,SVPGHI,AOML,UNKNOWN,North
2021-11-25T19:00:02Z,2021,19,0,329.7917,329.7917,62.498,-50.329,-999.0,0.64,-999.0,no,yes,no,300234068348010,SVPGHI,AOML,UNKNOWN,North
2021-11-25T19:59:57Z,2021,20,0,329.8333,329.8333,62.498,-50.332,-999.0,0.64,-999.0,no,yes,no,300234068348010,SVPGHI,AOML,UNKNOWN,North
2021-11-25T21:00:00Z,2021,21,0,329.875,329.875,62.498,-50.332,-999.0,0.66,-999.0,no,yes,no,300234068348010,SVPGHI,AOML,UNKNOWN,North
2021-11-25T22:00:02Z,2021,22,0,329.9167,329.9167,62.498,-50.332,-999.0,0.66,-999.0,no,yes,no,300234068348010,SVPGHI,AOML,UNKNOWN,North
2021-11-25T22:59:57Z,2021,23,0,329.9583,329.9583,62.498,-50.332,-999.0,0.71,-999.0,no,yes,no,300234068348010,SVPGHI,AOML,UNKNOWN,North
2021-11-26T00:00:00Z,2021,0,0,330.0,330.0,62.498,-50.332,-999.0,0.72,-999.0,no,yes,no,300234068348010,SVPGHI,AOML,UNKNOWN,North
2021-11-26T01:00:02Z,2021,1,0,330.0417,330.0417,62.498,-50.332,-999.0,0.72,-999.0,no,yes,no,300234068348010,SVPGHI,AOML,UNKNOWN,North
2021-11-26T01:59:57Z,2021,2,0,330.0833,330.0833,62.498,-50.332,-999.0,0.7,-999.0,no,yes,no,300234068348010,SVPGHI,AOML,UNKNOWN,North
2021-11-26T03:00:00Z,2021,3,0,330.125,330.125,62.499,-50.332,-999.0,0.72,-999.0,no,yes,no,300234068348010,SVPGHI,AOML,UNKNOWN,North
2021-11-26T04:00:02Z,2021,4,0,330.1667,330.1667,62.499,-50.332,-999.0,0.72,-999.0,no,yes,no,300234068348010,SVPGHI,AOML,UNKNOWN,North
2021-11-26T04:59:57Z,2021,5,0,330.2083,330.2083,62.5,-50.333,-999.0,0.73,-999.0,no,yes,no,300234068348010,SVPGHI,AOML,UNKNOWN,North
2021-11-26T06:00:00Z,2021,6,0,330.25,330.25,62.498,-50.332,-999.0,0.75,-999.0,no,yes,no,300234068348010,SVPGHI,AOML,UNKNOWN,North
2021-11-26T07:00:02Z,2021,7,0,330.2917,330.2917,62.498,-50.332,-999.0,0.76,-999.0,no,yes,no,300234068348010,SVPGHI,AOML,UNKNOWN,North
2021-11-26T07:59:57Z,2021,8,0,330.3333,330.3333,62.499,-50.332,-999.0,0.78,-999.0,no,yes,no,300234068348010,SVPGHI,AOML,UNKNOWN,North
2021-11-26T09:00:00Z,2021,9,0,330.375,330.375,62.499,-50.332,-999.0,0.8,-999.0,no,yes,no,300234068348010,SVPGHI,AOML,UNKNOWN,North
2021-11-26T10:00:02Z,2021,10,0,330.4167,330.4167,62.499,-50.331,-999.0,0.8,-999.0,no,yes,no,300234068348010,SVPGHI,AOML,UNKNOWN,North
2021-11-26T13:00:02Z,2021,13,0,330.5417,330.5417,62.498,-50.332,-999.0,0.85,-999.0,no,yes,no,300234068348010,SVPGHI,AOML,UNKNOWN,North
2021-11-26T13:59:57Z,2021,14,0,330.5833,330.5833,62.498,-50.332,-999.0,0.87,-999.0,no,yes,no,300234068348010,SVPGHI,AOML,UNKNOWN,North
2021-11-26T15:00:00Z,2021,15,0,330.625,330.625,62.499,-50.332,-999.0,0.89,-999.0,no,yes,no,300234068348010,SVPGHI,AOML,UNKNOWN,North
2021-11-26T16:00:02Z,2021,16,0,330.6667,330.6667,62.498,-50.332,-999.0,0.9,-999.0,no,yes,no,300234068348010,SVPGHI,AOML,UNKNOWN,North
2021-11-26T18:00:00Z,2021,18,0,330.75,330.75,62.498,-50.332,-999.0,1.02,-999.0,no,yes,no,300234068348010,SVPGHI,AOML,UNKNOWN,North
2021-11-26T19:00:02Z,2021,19,0,330.7917,330.7917,62.498,-50.332,-999.0,1.03,-999.0,no,yes,no,300234068348010,SVPGHI,AOML,UNKNOWN,North
2021-11-26T19:59:57Z,2021,20,0,330.8333,330.8333,62.497,-50.331,-999.0,0.98,-999.0,no,yes,no,300234068348010,SVPGHI,AOML,UNKNOWN,North
2021-11-26T21:00:00Z,2021,21,0,330.875,330.875,62.498,-50.332,-999.0,0.97,-999.0,no,yes,no,300234068348010,SVPGHI,AOML,UNKNOWN,North
2021-11-26T22:00:02Z,2021,22,0,330.9167,330.9167,62.499,-50.332,-999.0,0.99,-999.0,no,yes,no,300234068348010,SVPGHI,AOML,UNKNOWN,North
2021-11-26T22:59:57Z,2021,23,0,330.9583,330.9583,62.499,-50.332,-999.0,1.0,-999.0,no,yes,no,300234068348010,SVPGHI,AOML,UNKNOWN,North
2021-11-27T00:00:00Z,2021,0,0,331.0,331.0,62.498,-50.332,-999.0,1.01,-999.0,no,yes,no,300234068348010,SVPGHI,AOML,UNKNOWN,North
2021-11-27T01:00:02Z,2021,1,0,331.0417,331.0417,62.499,-50.332,-999.0,1.0,-999.0,no,yes,no,300234068348010,SVPGHI,AOML,UNKNOWN,North
2021-11-27T01:59:57Z,2021,2,0,331.0833,331.0833,62.498,-50.332,-999.0,1.01,-999.0,no,yes,no,300234068348010,SVPGHI,AOML,UNKNOWN,North
2021-11-27T03:00:00Z,2021,3,0,331.125,331.125,62.498,-50.332,-999.0,1.01,-999.0,no,yes,no,300234068348010,SVPGHI,AOML,UNKNOWN,North
2021-11-27T04:00:02Z,2021,4,0,331.1667,331.1667,62.498,-50.332,-999.0,0.99,-999.0,no,yes,no,300234068348010,SVPGHI,AOML,UNKNOWN,North
2021-11-27T04:59:57Z,2021,5,0,331.2083,331.2083,62.498,-50.332,-999.0,1.03,-999.0,no,yes,no,300234068348010,SVPGHI,AOML,UNKNOWN,North
2021-11-27T06:00:00Z,2021,6,0,331.25,331.25,62.501,-50.331,-999.0,1.01,-999.0,no,yes,no,300234068348010,SVPGHI,AOML,UNKNOWN,North
2021-11-27T07:00:02Z,2021,7,0,331.2917,331.2917,62.499,-50.331,-999.0,1.01,-999.0,no,yes,no,300234068348010,SVPGHI,AOML,UNKNOWN,North
2021-11-27T07:59:57Z,2021,8,0,331.3333,331.3333,62.499,-50.331,-999.0,1.03,-999.0,no,yes,no,300234068348010,SVPGHI,AOML,UNKNOWN,North
2021-11-27T09:00:00Z,2021,9,0,331.375,331.375,62.499,-50.332,-999.0,1.02,-999.0,no,yes,no,300234068348010,SVPGHI,AOML,UNKNOWN,North
2021-11-27T10:00:02Z,2021,10,0,331.4167,331.4167,62.499,-50.332,-999.0,1.02,-999.0,no,yes,no,300234068348010,SVPGHI,AOML,UNKNOWN,North
2021-11-27T13:00:02Z,2021,13,0,331.5417,331.5417,62.499,-50.332,-999.0,1.04,-999.0,no,yes,no,300234068348010,SVPGHI,AOML,UNKNOWN,North
2021-11-27T13:59:57Z,2021,14,0,331.5833,331.5833,62.498,-50.332,-999.0,1.04,-999.0,no,yes,no,300234068348010,SVPGHI,AOML,UNKNOWN,North
2021-11-27T15:00:00Z,2021,15,0,331.625,331.625,62.498,-50.332,-999.0,1.05,-999.0,no,yes,no,300234068348010,SVPGHI,AOML,UNKNOWN,North
2021-11-27T16:00:02Z,2021,16,0,331.6667,331.6667,62.498,-50.332,-999.0,1.04,-999.0,no,yes,no,300234068348010,SVPGHI,AOML,UNKNOWN,North
2021-11-27T16:59:57Z,2021,17,0,331.7083,331.7083,62.499,-50.329,-999.0,1.02,-999.0,no,yes,no,300234068348010,SVPGHI,AOML,UNKNOWN,North
2021-11-27T18:00:00Z,2021,18,0,331.75,331.75,62.499,-50.336,-999.0,1.02,-999.0,no,yes,no,300234068348010,SVPGHI,AOML,UNKNOWN,North
2021-11-27T19:00:02Z,2021,19,0,331.7917,331.7917,62.498,-50.332,-999.0,1.04,-999.0,no,yes,no,300234068348010,SVPGHI,AOML,UNKNOWN,North
2021-11-27T19:59:57Z,2021,20,0,331.8333,331.8333,62.498,-50.332,-999.0,1.06,-999.0,no,yes,no,300234068348010,SVPGHI,AOML,UNKNOWN,North
2021-11-27T21:00:00Z,2021,21,0,331.875,331.875,62.498,-50.332,-999.0,1.06,-999.0,no,yes,no,300234068348010,SVPGHI,AOML,UNKNOWN,North
2021-11-27T22:00:02Z,2021,22,0,331.9167,331.9167,62.499,-50.332,-999.0,1.07,-999.0,no,yes,no,300234068348010,SVPGHI,AOML,UNKNOWN,North
2021-11-27T22:59:57Z,2021,23,0,331.9583,331.9583,62.498,-50.332,-999.0,1.06,-999.0,no,yes,no,300234068348010,SVPGHI,AOML,UNKNOWN,North
2021-11-28T00:00:00Z,2021,0,0,332.0,332.0,62.499,-50.332,-999.0,1.05,-999.0,no,yes,no,300234068348010,SVPGHI,AOML,UNKNOWN,North
2021-11-28T01:00:02Z,2021,1,0,332.0417,332.0417,62.498,-50.332,-999.0,1.03,-999.0,no,yes,no,300234068348010,SVPGHI,AOML,UNKNOWN,North
2021-11-28T01:59:57Z,2021,2,0,332.0833,332.0833,62.498,-50.331,-999.0,1.07,-999.0,no,yes,no,300234068348010,SVPGHI,AOML,UNKNOWN,North
2021-11-28T03:00:00Z,2021,3,0,332.125,332.125,62.498,-50.331,-999.0,1.08,-999.0,no,yes,no,300234068348010,SVPGHI,AOML,UNKNOWN,North
2021-11-28T04:00:02Z,2021,4,0,332.1667,332.1667,62.499,-50.33,-999.0,1.12,-999.0,no,yes,no,300234068348010,SVPGHI,AOML,UNKNOWN,North
2021-11-28T04:59:57Z,2021,5,0,332.2083,332.2083,62.5,-50.332,-999.0,1.15,-999.0,no,yes,no,300234068348010,SVPGHI,AOML,UNKNOWN,North
2021-11-28T06:00:00Z,2021,6,0,332.25,332.25,62.498,-50.329,-999.0,1.16,-999.0,no,yes,no,300234068348010,SVPGHI,AOML,UNKNOWN,North
2021-11-28T07:00:02Z,2021,7,0,332.2917,332.2917,62.5,-50.331,-999.0,1.16,-999.0,no,yes,no,300234068348010,SVPGHI,AOML,UNKNOWN,North
2021-11-28T07:59:57Z,2021,8,0,332.3333,332.3333,62.499,-50.331,-999.0,1.18,-999.0,no,yes,no,300234068348010,SVPGHI,AOML,UNKNOWN,North
2021-11-28T09:00:00Z,2021,9,0,332.375,332.375,62.499,-50.332,-999.0,1.16,-999.0,no,yes,no,300234068348010,SVPGHI,AOML,UNKNOWN,North
2021-11-28T10:00:02Z,2021,10,0,332.4167,332.4167,62.499,-50.332,-999.0,1.16,-999.0,no,yes,no,300234068348010,SVPGHI,AOML,UNKNOWN,North
2021-11-28T13:00:02Z,2021,13,0,332.5417,332.5417,62.499,-50.332,-999.0,1.16,-999.0,no,yes,no,300234068348010,SVPGHI,AOML,UNKNOWN,North
2021-11-28T13:59:57Z,2021,14,0,332.5833,332.5833,62.498,-50.332,-999.0,1.18,-999.0,no,yes,no,300234068348010,SVPGHI,AOML,UNKNOWN,North
2021-11-28T15:00:00Z,2021,15,0,332.625,332.625,62.498,-50.332,-999.0,1.22,-999.0,no,yes,no,300234068348010,SVPGHI,AOML,UNKNOWN,North
2021-11-28T16:00:02Z,2021,16,0,332.6667,332.6667,62.498,-50.33,-999.0,1.26,-999.0,no,yes,no,300234068348010,SVPGHI,AOML,UNKNOWN,North
2021-11-28T16:59:57Z,2021,17,0,332.7083,332.7083,62.498,-50.332,-999.0,1.27,-999.0,no,yes,no,300234068348010,SVPGHI,AOML,UNKNOWN,North
2021-11-28T18:00:00Z,2021,18,0,332.75,332.75,62.498,-50.332,-999.0,1.25,-999.0,no,yes,no,300234068348010,SVPGHI,AOML,UNKNOWN,North
2021-11-28T19:00:02Z,2021,19,0,332.7917,332.7917,62.5,-50.333,-999.0,1.22,-999.0,no,yes,no,300234068348010,SVPGHI,AOML,UNKNOWN,North
2021-11-28T19:59:57Z,2021,20,0,332.8333,332.8333,62.497,-50.332,-999.0,1.21,-999.0,no,yes,no,300234068348010,SVPGHI,AOML,UNKNOWN,North
2021-11-28T21:00:00Z,2021,21,0,332.875,332.875,62.498,-50.332,-999.0,1.19,-999.0,no,yes,no,300234068348010,SVPGHI,AOML,UNKNOWN,North
2021-11-28T22:00:02Z,2021,22,0,332.9167,332.9167,62.498,-50.332,-999.0,1.23,-999.0,no,yes,no,300234068348010,SVPGHI,AOML,UNKNOWN,North
2021-11-28T22:59:57Z,2021,23,0,332.9583,332.9583,62.498,-50.332,-999.0,1.19,-999.0,no,yes,no,300234068348010,SVPGHI,AOML,UNKNOWN,North
2021-11-29T00:00:00Z,2021,0,0,333.0,333.0,62.498,-50.332,-999.0,1.26,-999.0,no,yes,no,300234068348010,SVPGHI,AOML,UNKNOWN,North
2021-11-29T01:00:02Z,2021,1,0,333.0417,333.0417,62.499,-50.332,-999.0,1.31,-999.0,no,yes,no,300234068348010,SVPGHI,AOML,UNKNOWN,North
2021-11-29T01:59:57Z,2021,2,0,333.0833,333.0833,62.498,-50.33,-999.0,1.31,-999.0,no,yes,no,300234068348010,SVPGHI,AOML,UNKNOWN,North
2021-11-29T03:00:00Z,2021,3,0,333.125,333.125,62.498,-50.328,-999.0,1.32,-999.0,no,yes,no,300234068348010,SVPGHI,AOML,UNKNOWN,North
2021-11-29T04:00:02Z,2021,4,0,333.1667,333.1667,62.499,-50.329,-999.0,1.33,-999.0,no,yes,no,300234068348010,SVPGHI,AOML,UNKNOWN,North
2021-11-29T04:59:57Z,2021,5,0,333.2083,333.2083,62.499,-50.332,-999.0,1.34,-999.0,no,yes,no,300234068348010,SVPGHI,AOML,UNKNOWN,North
2021-11-29T06:00:00Z,2021,6,0,333.25,333.25,62.498,-50.332,-999.0,1.33,-999.0,no,yes,no,300234068348010,SVPGHI,AOML,UNKNOWN,North
2021-11-29T07:00:02Z,2021,7,0,333.2917,333.2917,62.499,-50.332,-999.0,1.32,-999.0,no,yes,no,300234068348010,SVPGHI,AOML,UNKNOWN,North
2021-11-29T07:59:57Z,2021,8,0,333.3333,333.3333,62.499,-50.333,-999.0,1.32,-999.0,no,yes,no,300234068348010,SVPGHI,AOML,UNKNOWN,North
2021-11-29T09:00:00Z,2021,9,0,333.375,333.375,62.498,-50.332,-999.0,1.31,-999.0,no,yes,no,300234068348010,SVPGHI,AOML,UNKNOWN,North
2021-11-29T10:00:02Z,2021,10,0,333.4167,333.4167,62.498,-50.332,-999.0,1.29,-999.0,no,yes,no,300234068348010,SVPGHI,AOML,UNKNOWN,North
2021-11-29T13:00:02Z,2021,13,0,333.5417,333.5417,62.502,-50.331,-999.0,1.24,-999.0,no,yes,no,300234068348010,SVPGHI,AOML,UNKNOWN,North
2021-11-29T13:59:57Z,2021,14,0,333.5833,333.5833,62.497,-50.335,-999.0,1.26,-999.0,no,yes,no,300234068348010,SVPGHI,AOML,UNKNOWN,North
2021-11-29T15:00:00Z,2021,15,0,333.625,333.625,62.498,-50.332,-999.0,1.27,-999.0,no,yes,no,300234068348010,SVPGHI,AOML,UNKNOWN,North
2021-11-29T16:00:02Z,2021,16,0,333.6667,333.6667,62.498,-50.332,-999.0,1.27,-999.0,no,yes,no,300234068348010,SVPGHI,AOML,UNKNOWN,North
2021-11-29T16:59:57Z,2021,17,0,333.7083,333.7083,62.498,-50.332,-999.0,1.27,-999.0,no,yes,no,300234068348010,SVPGHI,AOML,UNKNOWN,North
2021-11-29T18:00:00Z,2021,18,0,333.75,333.75,62.499,-50.34,-999.0,1.27,-999.0,no,yes,no,300234068348010,SVPGHI,AOML,UNKNOWN,North
2021-11-29T19:00:02Z,2021,19,0,333.7917,333.7917,62.498,-50.332,-999.0,1.27,-999.0,no,yes,no,300234068348010,SVPGHI,AOML,UNKNOWN,North
2021-11-29T19:59:57Z,2021,20,0,333.8333,333.8333,62.498,-50.332,-999.0,1.27,-999.0,no,yes,no,300234068348010,SVPGHI,AOML,UNKNOWN,North
2021-11-29T21:00:00Z,2021,21,0,333.875,333.875,62.498,-50.332,-999.0,1.26,-999.0,no,yes,no,300234068348010,SVPGHI,AOML,UNKNOWN,North
2021-11-29T22:00:02Z,2021,22,0,333.9167,333.9167,62.499,-50.332,-999.0,1.26,-999.0,no,yes,no,300234068348010,SVPGHI,AOML,UNKNOWN,North
2021-11-29T22:59:57Z,2021,23,0,333.9583,333.9583,62.499,-50.332,-999.0,1.26,-999.0,no,yes,no,300234068348010,SVPGHI,AOML,UNKNOWN,North
2021-11-30T01:00:02Z,2021,1,0,334.0417,334.0417,62.498,-50.333,-999.0,1.23,-999.0,no,yes,no,300234068348010,SVPGHI,AOML,UNKNOWN,North
2021-11-30T01:59:57Z,2021,2,0,334.0833,334.0833,62.498,-50.325,-999.0,1.26,-999.0,no,yes,no,300234068348010,SVPGHI,AOML,UNKNOWN,North
2021-11-30T03:00:00Z,2021,3,0,334.125,334.125,62.497,-50.327,-999.0,1.26,-999.0,no,yes,no,300234068348010,SVPGHI,AOML,UNKNOWN,North
2021-11-30T04:00:02Z,2021,4,0,334.1667,334.1667,62.499,-50.328,-999.0,1.26,-999.0,no,yes,no,300234068348010,SVPGHI,AOML,UNKNOWN,North
2021-11-30T04:59:57Z,2021,5,0,334.2083,334.2083,62.499,-50.332,-999.0,1.26,-999.0,no,yes,no,300234068348010,SVPGHI,AOML,UNKNOWN,North
2021-11-30T06:00:00Z,2021,6,0,334.25,334.25,62.498,-50.332,-999.0,1.25,-999.0,no,yes,no,300234068348010,SVPGHI,AOML,UNKNOWN,North
2021-11-30T07:00:02Z,2021,7,0,334.2917,334.2917,62.499,-50.332,-999.0,1.24,-999.0,no,yes,no,300234068348010,SVPGHI,AOML,UNKNOWN,North
2021-11-30T07:59:57Z,2021,8,0,334.3333,334.3333,62.499,-50.332,-999.0,1.24,-999.0,no,yes,no,300234068348010,SVPGHI,AOML,UNKNOWN,North
2021-11-30T09:00:00Z,2021,9,0,334.375,334.375,62.497,-50.33,-999.0,1.24,-999.0,no,yes,no,300234068348010,SVPGHI,AOML,UNKNOWN,North
2021-11-30T10:00:02Z,2021,10,0,334.4167,334.4167,62.498,-50.332,-999.0,1.24,-999.0,no,yes,no,300234068348010,SVPGHI,AOML,UNKNOWN,North
2021-11-30T12:00:00Z,2021,12,0,334.5,334.5,62.499,-50.332,-999.0,1.23,-999.0,no,yes,no,300234068348010,SVPGHI,AOML,UNKNOWN,North
2021-11-30T13:00:02Z,2021,13,0,334.5417,334.5417,62.499,-50.332,-999.0,1.22,-999.0,no,yes,no,300234068348010,SVPGHI,AOML,UNKNOWN,North
2021-11-30T13:59:57Z,2021,14,0,334.5833,334.5833,62.498,-50.332,-999.0,1.23,-999.0,no,yes,no,300234068348010,SVPGHI,AOML,UNKNOWN,North
2021-11-30T15:00:00Z,2021,15,0,334.625,334.625,62.498,-50.332,-999.0,1.23,-999.0,no,yes,no,300234068348010,SVPGHI,AOML,UNKNOWN,North
2021-11-30T16:00:02Z,2021,16,0,334.6667,334.6667,62.498,-50.332,-999.0,1.23,-999.0,no,yes,no,300234068348010,SVPGHI,AOML,UNKNOWN,North
2021-11-30T16:59:57Z,2021,17,0,334.7083,334.7083,62.498,-50.332,-999.0,1.23,-999.0,no,yes,no,300234068348010,SVPGHI,AOML,UNKNOWN,North
2021-11-30T18:00:00Z,2021,18,0,334.75,334.75,62.498,-50.332,-999.0,1.21,-999.0,no,yes,no,300234068348010,SVPGHI,AOML,UNKNOWN,North
2021-11-30T19:00:02Z,2021,19,0,334.7917,334.7917,62.499,-50.334,-999.0,1.2,-999.0,no,yes,no,300234068348010,SVPGHI,AOML,UNKNOWN,North
2021-11-30T19:59:57Z,2021,20,0,334.8333,334.8333,62.498,-50.332,-999.0,1.18,-999.0,no,yes,no,300234068348010,SVPGHI,AOML,UNKNOWN,North
2021-11-30T21:00:00Z,2021,21,0,334.875,334.875,62.498,-50.332,-999.0,1.17,-999.0,no,yes,no,300234068348010,SVPGHI,AOML,UNKNOWN,North
2021-11-30T22:00:02Z,2021,22,0,334.9167,334.9167,62.499,-50.332,-999.0,1.16,-999.0,no,yes,no,300234068348010,SVPGHI,AOML,UNKNOWN,North
2021-11-30T22:59:57Z,2021,23,0,334.9583,334.9583,62.499,-50.332,-999.0,1.13,-999.0,no,yes,no,300234068348010,SVPGHI,AOML,UNKNOWN,North
2021-12-01T00:00:00Z,2021,0,0,335.0,335.0,62.499,-50.333,-999.0,1.05,-999.0,no,yes,no,300234068348010,SVPGHI,AOML,UNKNOWN,North
2021-12-01T01:00:02Z,2021,1,0,335.0417,335.0417,62.499,-50.332,-999.0,0.97,-999.0,no,yes,no,300234068348010,SVPGHI,AOML,UNKNOWN,North
2021-12-01T01:59:57Z,2021,2,0,335.0833,335.0833,62.498,-50.331,-999.0,1.03,-999.0,no,yes,no,300234068348010,SVPGHI,AOML,UNKNOWN,North
2021-12-01T03:00:00Z,2021,3,0,335.125,335.125,62.498,-50.331,-999.0,1.09,-999.0,no,yes,no,300234068348010,SVPGHI,AOML,UNKNOWN,North
2021-12-01T04:00:02Z,2021,4,0,335.1667,335.1667,62.498,-50.331,-999.0,1.03,-999.0,no,yes,no,300234068348010,SVPGHI,AOML,UNKNOWN,North
2021-12-01T04:59:57Z,2021,5,0,335.2083,335.2083,62.498,-50.332,-999.0,1.03,-999.0,no,yes,no,300234068348010,SVPGHI,AOML,UNKNOWN,North
2021-12-01T06:00:00Z,2021,6,0,335.25,335.25,62.498,-50.332,-999.0,0.97,-999.0,no,yes,no,300234068348010,SVPGHI,AOML,UNKNOWN,North
2021-12-01T07:00:02Z,2021,7,0,335.2917,335.2917,62.498,-50.332,-999.0,1.08,-999.0,no,yes,no,300234068348010,SVPGHI,AOML,UNKNOWN,North
2021-12-01T07:59:57Z,2021,8,0,335.3333,335.3333,62.498,-50.331,-999.0,1.19,-999.0,no,yes,no,300234068348010,SVPGHI,AOML,UNKNOWN,North
2021-12-01T09:00:00Z,2021,9,0,335.375,335.375,62.496,-50.328,-999.0,1.23,-999.0,no,yes,no,300234068348010,SVPGHI,AOML,UNKNOWN,North
2021-12-01T10:00:02Z,2021,10,0,335.4167,335.4167,62.497,-50.332,-999.0,0.73,-999.0,no,yes,no,300234068348010,SVPGHI,AOML,UNKNOWN,North
2021-12-01T10:59:57Z,2021,11,0,335.4583,335.4583,62.498,-50.332,-999.0,1.23,-999.0,no,yes,no,300234068348010,SVPGHI,AOML,UNKNOWN,North
2021-12-01T12:00:00Z,2021,12,0,335.5,335.5,62.498,-50.332,-999.0,1.29,-999.0,no,yes,no,300234068348010,SVPGHI,AOML,UNKNOWN,North
2021-12-01T13:00:02Z,2021,13,0,335.5417,335.5417,62.499,-50.332,-999.0,1.29,-999.0,no,yes,no,300234068348010,SVPGHI,AOML,UNKNOWN,North
2021-12-01T13:59:57Z,2021,14,0,335.5833,335.5833,62.499,-50.332,-999.0,1.28,-999.0,no,yes,no,300234068348010,SVPGHI,AOML,UNKNOWN,North
2021-12-01T15:00:00Z,2021,15,0,335.625,335.625,62.499,-50.332,-999.0,1.28,-999.0,no,yes,no,300234068348010,SVPGHI,AOML,UNKNOWN,North
2021-12-01T16:00:02Z,2021,16,0,335.6667,335.6667,62.499,-50.334,-999.0,1.27,-999.0,no,yes,no,300234068348010,SVPGHI,AOML,UNKNOWN,North